Other Public Products
Issued by NWS Grand Forks, ND

Home | Current Version | Previous Version | Text Only | Print | Product List | Glossary Off
Versions: 1 2 3 4 5 6 7 8 9 10 11 12 13 14 15 16 17 18 19 20 21 22 23 24 25 26 27 28 29 30 31 32 33 34 35 36 37 38 39 40 41 42 43 44 45 46 47 48 49 50

000
FPUS83 KFGF 230510
OPUFGF
PRAIRIE TO PINES WEATHER ROUNDUP
NATIONAL WEATHER SERVICE EASTERN NORTH DAKOTA/GRAND FORKS ND
1100 PM CST WED FEB 22 2017

 **SATELLITE DATA USED TO AUGMENT SKY COVER AT AUTOMATED STATIONS**
 *****  WEATHER ACROSS EASTERN NORTH DAKOTA  *****

CITY           SKY/WX    TMP DP  RH WIND       PRES   REMARKS
GRAND FORKS    FAIR      29  22  75 NW10      29.96R WCI  20
GRAND FORKS AF FAIR      29  25  84 N10       29.97R WCI  20
GRAND CITY NWS NOT AVBL
BUXTON         NOT AVBL
DEVILS LAKE    FAIR      29  25  85 NW13      29.97R WCI  19
FARGO          FAIR      31  28  89 NW9       29.94R WCI  23
WAHPETON ARPT    N/A     32  28  86 NW9       29.94R WCI  24
$$

 *****  WEATHER ACROSS CENTRAL AND WESTERN NORTH DAKOTA  *****

CITY           SKY/WX    TMP DP  RH WIND       PRES   REMARKS
JAMESTOWN      FAIR      28  25  88 NW9       29.95S WCI  19
BISMARCK       FAIR      31  27  85 N3        30.00R
MINOT          CLOUDY    32  27  81 W9        29.97S WCI  24
MINOT AFB      CLOUDY    31  28  89 NW8       29.96S WCI  23
GARRISON         N/A     26  23  88 NW8       29.97S WCI  18
WILLISTON      CLOUDY    29  25  85 CALM      30.01S
DICKINSON      CLOUDY    27  23  85 N3        29.95S
HETTINGER      LGT SNOW  27  25  92 NE8       29.95F FOG     WCI  19
$$

 *****  OTHER OBSERVATIONS NORTHEAST NORTH DAKOTA  *****

CITY           SKY/WX    TMP DP  RH WIND       PRES   REMARKS
WALHALLA       NOT AVBL
LANGDON        NOT AVBL
CAVALIER         N/A     28  23  80 N10       29.97S WCI  19
GRAFTON        MOCLDY    28  25  86 NW10      29.99R WCI  19
CANDO          NOT AVBL
FORT TOTTEN      N/A     28  28  98 NW6       29.95S WCI  22
ROLLA          FAIR      23  23 100 NW8       29.96S WCI  14
RUGBY            N/A     23  23 100 CALM      29.97S
 ***** THE ABOVE OBSERVATIONS ARE NON NWS ARE NOT QUALITY
        CONTROLLED AND MAY MIS-REPORT RAIN FOR SNOW...
$$

 *****  OTHER OBSERVATIONS SOUTHEAST NORTH DAKOTA *****

CITY           SKY/WX    TMP DP  RH WIND       PRES   REMARKS
COOPERSTOWN    FAIR      27  25  93 W5        29.95S WCI  21
VALLEY CITY    FAIR      27  27 100 N8        29.97S WCI  18
OAKES          NOT AVBL
GWINNER        FAIR      28  27  93 NW9       29.95S WCI  20
SHEYENNE NWR     N/A     27  24  87 NW3       29.95S
BUFFALO        NOT AVBL
WYNDMERE       NOT AVBL
 ***** THE ABOVE OBSERVATIONS ARE NON NWS ARE NOT QUALITY
       CONTROLLED AND MAY MIS-REPORT RAIN FOR SNOW...
$$

  *****  WEATHER ACROSS NORTHERN MINNESOTA  *****

CITY           SKY/WX    TMP DP  RH WIND       PRES   REMARKS
FLAG ISLAND    CLOUDY    27  18  69 N18G25    29.90R WCI  13
WARROAD        FAIR      27  19  74 NW7       29.91R WCI  19
ROSEAU         FAIR      27  19  74 N10       29.92R WCI  17
HALLOCK        CLOUDY    28  25  86 N9        29.96R WCI  20
THF RVR FALLS  FAIR      27  25  92 NW9       29.93R WCI  18
HALSTAD          N/A     31  27  84 N12         N/A  WCI  22
FOSSTON        FAIR      27  25  93 NW7       29.90S WCI  19
BAUDETTE       MOCLDY    25  17  72 N13       29.88R WCI  14
WASKISH        FAIR      27  21  80 NW7       29.87R WCI  19
CROOKSTON      FAIR      28  27  93 N12       29.95S WCI  18
$$
  *****  WEATHER ACROSS CENTRAL AND WEST MINNESOTA  *****

CITY           SKY/WX    TMP DP  RH WIND       PRES   REMARKS
BEMIDJI        FAIR      23  20  88 NW6       29.86R WCI  16
PARK RAPIDS    FAIR      25  21  85 N7        29.85R WCI  17
WADENA         FAIR      28  27  93 N9        29.86R WCI  20
DETROIT LAKES  FAIR      30  28  93 N10       29.90R WCI  21
MOORHEAD       FAIR      30  27  86 N13       29.95R WCI  20
FERGUS FALLS   FAIR      30  27  86 N8        29.95R WCI  23
ELBOW LAKE     CLOUDY    31  28  86 N13       29.89R WCI  22
MORRIS MN      CLOUDY    34  30  86 N16       29.88R WCI  23
STAPLES        FAIR      28  27  93 N9        29.85S WCI  20
WHEATON        FAIR      30  27  86 NW12      29.94R WCI  21
$$
  *****  WEATHER ELSEWHERE ACROSS MINNESOTA  *****

CITY           SKY/WX    TMP DP  RH WIND       PRES   REMARKS
DULUTH         FLURRIES  33  31  92 N14G21    29.73R WCI  23
INTRNTL FALLS  FAIR      26  21  81 NW8       29.82S WCI  18
ELY            CLOUDY    28  27  93 N3        29.76R
CLOQUET        CLOUDY    34  30  86 NW13      29.74R WCI  25
BRAINERD       CLOUDY    31  27  85 N15       29.83R WCI  20
HIBBING        CLOUDY    29  28  96 N12       29.78R WCI  19
ALEXANDRIA     CLOUDY    32  29  88 N20       29.86R WCI  20
SAINT CLOUD    CLOUDY    34  32  92 N14G23    29.80R WCI  25
MINNEAPOLIS    CLOUDY    39  32  76 NW18      29.75R
$$

  *****  WEATHER ACROSS SOUTH DAKOTA  *****

CITY           SKY/WX    TMP DP  RH WIND       PRES   REMARKS
SIOUX FALLS    CLOUDY    35  33  92 N10       29.88R
BROOKINGS      CLOUDY    32  29  88 N14       29.87R WCI  22
WATERTOWN      CLOUDY    30  25  81 N18G25    29.88R WCI  18
HURON          CLOUDY    32  27  81 N14G26    29.94R WCI  22
SISSETON         N/A     32  28  85 N12       29.92R WCI  23
ABERDEEN       FAIR      30  24  78 N13       29.95F WCI  20
MITCHELL       CLOUDY    34  31  88 N16G25    29.94R WCI  24
PIERRE         CLOUDY    32  27  81 NE15      29.94R WCI  22
MOBRIDGE       CLOUDY    33  25  72 NE12      29.94F WCI  24
RAPID CITY     CLOUDY    32  27  81 NE13      29.90F WCI  22
$$

  *****  SOME WEATHER IN NEARBY STATES *****

CITY           SKY/WX    TMP DP  RH WIND       PRES   REMARKS
GLASGOW MT     FAIR      25  24  96 S5        29.99F FOG     WCI  19
GREAT FALLS MT CLOUDY    30  25  81 CALM      29.95S
CHEYENNE WY    CLOUDY    30  28  92 N7        29.76S WCI  23
SCOTTSBLUFF NE LGT RAIN  39  32  76 NE17      29.81R
OMAHA NE       FAIR      43  36  76 N7        29.80R
DES MOINES IA  FAIR      51  43  74 N10       29.77R
DAVENPORT IA   FAIR      49  41  74 W7        29.68R
CHICAGO IL     FAIR      59  52  77 SW10G21   29.61S
EAU CLAIRE WI  CLOUDY    45  39  79 NW13      29.64R
LA CROSSE WI   FAIR      48  41  76 NW7       29.63R
$$

  *****  SOME NATIONAL WEATHER *****

CITY           SKY/WX    TMP DP  RH WIND       PRES   REMARKS
LA GUARDIA NY  FAIR      49  43  80 CALM      29.88S
RALEIGH NC     MOCLDY    56  52  86 CALM      29.95R
ATLANTA GA     FAIR      58  57  97 E10       29.88F
NEW ORLEANS LA FAIR      63  56  78 CALM      29.84R
OKLAHOMA CITY  FAIR      57  43  59 SE7       29.68F
ALBUQUERQUE NM FAIR      53  28  38 VRB3      29.88F
SALT LAKE CITY LGT SNOW  33  28  81 NE5       29.80S FOG
LOS ANGELES CA FAIR      57  34  41 NW7       30.06R
BOISE ID       LGT SNOW  33  30  88 NW13      29.85S FOG     WCI  24
SEATTLE WA     FAIR      36  33  89 N6        30.19S
$$

*** WEATHER ACROSS MANITOBA...SASKATCHEWAN AND ONTARIO ***
                ***ONTARIO***

CITY           SKY/WX    TMP DP  RH WIND       PRES   REMARKS
GERALDTON      CLOUDY    30  19  64 N7        29.70R WCI  23
THUNDER BAY    CLOUDY    34  25  69 N7        29.74R
SIOUX LOOKOUT  CLOUDY    28  16  59 NW13      29.78S WCI  18
TORONTO        MOCLDY    43  41  93 SE5       29.70F FOG
BIG TROUT LK   PTCLDY     1  -4  78 NW10      29.84S HAZE    WCI -14
PICKLE LAKE    NOT AVBL
DRYDEN         CLOUDY    28  18  64 NW9G17    29.80R WCI  20
KENORA         NOT AVBL
$$
                *** MANITOBA***

CITY           SKY/WX    TMP DP  RH WIND       PRES   REMARKS
BRANDON        CLOUDY    30  23  74 NW10      29.97S WCI  21
DAUPHIN        CLOUDY    23  16  74 NE10      30.02S WCI  12
ISLAND LAKE    FLURRIES   0  -6  78 NW6       29.96R WCI -12
PILOT MOUND      N/A     27  25  93 NE2         N/A
THE PAS        PTCLDY     7   0  72 N10       30.06R WCI  -8
THOMPSON       LGT SNOW   0  -8  71 N10       30.05R DRFTSNOWWCI -17
WINNIPEG       MOCLDY    27  21  80 NE9       29.97R WCI  17
LYNN LAKE      CLOUDY     0  -6  78 NE13      30.08R WCI -18
CHURCHILL      CLEAR     -8 -11  84 N16       30.18R WCI -30
GILLAM         LGT SNOW  -2  -9  71 NE16      30.02R WCI -23
$$
                ***SASKATCHEWAN***

CITY           SKY/WX    TMP DP  RH WIND       PRES   REMARKS
ESTEVAN        CLOUDY    30  27  86 W7        29.97F WCI  23
KINDERSLEY     CLOUDY    23  19  86 S3        30.04S
LLOYDMINSTER   PTCLDY    19  14  79 NW6       30.04R WCI  11
PRINCE ALBERT  FLURRIES  19  12  73 SW3       30.05S
REGINA         FLURRIES  28  23  80 N13       30.00R WCI  18
YORKTON        FLURRIES  21  16  79 N13G20    30.01S W


USA.gov is the U.S. government's official web portal to all federal, state and local government web resources and services.